IRIDIUM 33 DEB, 35850

Orbit data source: Space-Track

IRIDIUM 33 DEB, 35850 is space debris in LEO originally from a launch on Sun, 14 Sep 1997 UTC launched from the Tyuratam Missile And Space Complex (TTMTR). The debris from Iridium 33, an American commercial communications satellite, has been tracked extensively since its accidental collision with the defunct Russian satellite Cosmos 2251 in 2009. This event, occurring at high speed in low Earth orbit (LEO), generated thousands of pieces of space debris, significantly increasing the risk of further collisions. The Iridium 33 debris cloud has impacted space traffic management and orbital debris mitigation strategies, making it a subject of ongoing study in space situational awareness.

Loading next visibility...
Identifier
35850, 1997-051TA
Orbit
LEO
Country
Flag of USUS
Related business
Manufacturer
Unknown
Mission
Spacecraft
Bus & Motor
Unknown
Mass
Unknown
Launch date (UTC)
1997-09-14 (28 years ago)
Launch vehicle
Unknown
Launch site
Tyuratam Missile And Space Complex (TTMTR)
Object type
Payload
Rocket body
Debris
Shape & HBR
Unknown shape, 0.1 m
Radar Cross Section
Small (<0.1 m²)

Expand to show TLE details & history
Last TLE update: 4 days ago

TLE from 4 days ago
0 IRIDIUM 33 DEB
1 35850U 97051TA  26059.96977532  .00011591  00000-0  14879-2 0  9991
2 35850  86.3498 308.6050 0007883 300.3336  59.7105 14.81111763725146
Epoch: 2026-02-28T23:16Z
TLE epoch observation values (Epoch: 2026-02-28T23:16:28.587Z)
Latitude
-0.00009°
Longitude
160.70162°
Altitude
626.151 km
Speed
7.547 km/s
True Right ascension
20h 34m 25s
True Declination
0° 00' 00"
Sunlit
Object was in daylight at epoch
Visualization orbit readout
Latitude
Unknown
Longitude
Unknown
Altitude
Unknown
Speed
Unknown
Apparent Right ascension
Unknown
Apparent Declination
Unknown
Sunlit
N/A
Visualization observer readout
Local Sidereal Time
00:39:44
Azimuth
Unknown
Elevation
Unknown
Doppler factor
Unknown
Orbital elements
Apogee altitude
628.235 km
Perigee altitude
617.198 km
Semi-major axis
7,000.854 km
Eccentricity
0.00079
Inclination
86.3498°
RAAN
308.605°
Arg. of periapsis
300.3336°
True anomaly
59.78854°
Mean anomaly
59.7105°
Eccentric anomaly
59.74952°
Mean motion
3.70524 °/min
Orbital period
97.16 mins
BSTAR
0.0014879
Loading maneuver chart data...
Computing Atmospheric mass density...

Documentation

Showing up to 5 results
|